Regional Weather Roundup
Issued by NWS Newport/Morehead, NC

Current Version | Previous Version | Text Only | Print | Product List | Glossary Off
Versions: 1 2 3 4 5 6 7 8 9 10 11 12 13 14 15 16 17 18 19 20 21 22 23 24 25 26 27 28 29 30 31 32 33 34 35 36 37 38 39 40 41 42 43 44 45 46 47 48 49 50
000 ASUS42 KMHX 261510 RWRMHX WEATHER ROUNDUP FOR EASTERN NORTH CAROLINA NATIONAL WEATHER SERVICE NEWPORT/MOREHEAD CITY NC 1000 AM EST MON JAN 26 2015 NOTE: "FAIR" INDICATES FEW OR NO CLOUDS BELOW 12,000 FEET WITH NO SIGNIFICANT WEATHER AND/OR OBSTRUCTIONS TO VISIBILITY NCZ015>017-031-032-045>047-102-103-261600- NORTH COAST CITY SKY/WX TMP DP RH WIND PRES REMARKS EDENTON PTSUNNY 45 43 93 N5 29.67F ELIZABETH CITY CLOUDY 46 42 86 NW5 29.68F KITTY HAWK CLOUDY 48 46 91 CALM 29.65F MANTEO CLOUDY 48 45 87 N3 29.66F $$ NCZ045>047-081-094-103-104-261600- CENTRAL COAST CITY SKY/WX TMP DP RH WIND PRES REMARKS FRISCO CLOUDY 51 46 83 CALM 29.64F SWANQUARTER NOT AVBL $$ NCZ095-097-098-100-101-261600- SOUTHERN COAST CITY SKY/WX TMP DP RH WIND PRES REMARKS BEAUFORT CLOUDY 47 45 93 CALM 29.67S CEDAR ISLAND NOT AVBL JACKSONVILLE CLOUDY 47 44 90 S3 29.68R PINEY ISLAND N/A N/A N/A N/A MISG 29.66F WILMINGTON CLOUDY 49 45 86 W9 29.66R $$ NCZ011>013-027>030-043-044-078>080-089-090>093-098-261600- COASTAL PLAIN CITY SKY/WX TMP DP RH WIND PRES REMARKS AHOSKIE MOSUNNY 41 37 86 N6 29.69F CLINTON CLOUDY 46 43 90 W3 29.67R ELIZABETHTOWN CLOUDY 46 44 93 W3 29.66R GOLDSBORO PTSUNNY 46 45 98 NW1 29.64F GREENVILLE PTSUNNY 41 39 93 N7 29.69F HAVELOCK LGT RAIN 46 43 89 S5 29.67S KENANSVILLE MOSUNNY 42 41 95 CALM 29.67R KINSTON PTSUNNY 43 39 87 CALM 29.66F NEW BERN CLOUDY 47 42 83 CALM 29.67S RICHLANDS PTSUNNY 46 43 87 SW5 29.67R ROCKY MOUNT LGT RAIN 44 39 82 NE10 29.65F WASHINGTON CLOUDY 43 40 90 CALM 29.65F WHITEVILLE MOSUNNY 49 43 80 W6 29.66S $$ AMZ130-135-150-152-154-156-158-170-250-252-270-ANZ085-086-088-633-658-670-261600- MARINE OBSERVATIONS STATION/POSITION TIME TEMP WIND PRES WAVE SWELL AIR SEA DIR/SP/G HT/PER HT/PER (UTC) (F) (DEG/KT/KT) (MB) (FT/S) (FT/S) CHESAPEAKE LIGHT 1400 46 60/ 11/ 12 1006.2 64 E VA BEACH 1500 53 52 40/ 12/ 14 1003.9 3/ 8 2/ 8 DUCK 1500 46 44 10/ 4/ 8 1004.0 2 E DUCK 1500 43 N/A 2/ 9 10 NE DUCK 1500 44 N/A 2/ 8 2/11 OREGON INLET 1500 49 46 360/ 4/ 5 1004.4 13E OREGON INLT 1500 46 N/A 2/ 8 HATTERAS CG 1500 50 54 330/ 7/ 8 1004.0 DIAMOND BUOY 1500 58 70 320/ 10/ 14 1003.9 3/ 8 3/ 8 17 S OCRACOKE NOT AVBL CAPE LOOKOUT 1400 49 350/ 8/ 8 1004.4 BEAUFORT LAB 1500 47 50 100/ 1/ 2 1003.1 27 SE WRIGHTSVLE NOT AVBL 5 SE WRIGHTSVLE 1400 51 51 290/ 10/ 14 1003.2 225 S CAPE HAT 1426 71 73 220/ 25/ 29 1004.1 7/ 6 2/ 9 41 SE CHARLESTON 1500 56 69 270/ 19/ 23 1004.9 6/ 7 $$

USA.gov is the U.S. government's official web portal to all federal, state and local government web resources and services.